| time (UTC) | temp F | wind direction | speed MPH | gust MPH | rain 1hr in | rain 24hr in | rain mn in | humidity % | barometer mb |
| 20260504172516 | 76 | 158 | 13.0 | 22.0 | 0.00 | 0.00 | 0.00 | 65 | 1011.0 |
| 20260504171537 | 76 | 135 | 12.0 | 21.0 | 0.00 | 0.00 | 0.00 | 65 | 1011.4 |
| 20260504170517 | 75 | 158 | 9.0 | 16.0 | 0.00 | 0.00 | 0.00 | 65 | 1011.5 |
| 20260504150517 | 69 | 158 | 10.0 | 24.0 | 0.00 | 0.00 | 0.00 | 74 | 1012.5 |
| 20260504140517 | 67 | 203 | 10.0 | 22.0 | 0.00 | 0.00 | 0.00 | 77 | 1012.4 |
| 20260504130537 | 64 | 203 | 10.0 | 19.0 | 0.00 | 0.00 | 0.00 | 81 | 1012.9 |
| 20260504110537 | 61 | 203 | 6.0 | 14.0 | 0.00 | 0.00 | 0.00 | 82 | 1012.8 |
| 20260504081016 | 61 | 203 | 6.0 | 10.0 | 0.00 | 0.00 | 0.00 | 76 | 1013.9 |
| 20260504050016 | 66 | 203 | 8.0 | 11.0 | 0.00 | 0.00 | 0.00 | 63 | 1015.6 |
| 20260504045016 | 66 | 203 | 8.0 | 13.0 | 0.00 | 0.00 | 0.00 | 63 | 1015.7 |
| 20260504044016 | 66 | 203 | 8.0 | 13.0 | 0.00 | 0.00 | 0.00 | 62 | 1015.8 |
| 20260504043016 | 67 | 203 | 7.0 | 13.0 | 0.00 | 0.00 | 0.00 | 61 | 1015.8 |
| 20260504042036 | 67 | 203 | 7.0 | 14.0 | 0.00 | 0.00 | 0.00 | 61 | 1016.0 |
| 20260504041016 | 67 | 203 | 8.0 | 14.0 | 0.00 | 0.00 | 0.00 | 61 | 1016.1 |
| 20260504040016 | 67 | 203 | 8.0 | 13.0 | 0.00 | 0.00 | 0.00 | 60 | 1016.0 |
| 20260504035016 | 67 | 203 | 8.0 | 12.0 | 0.00 | 0.00 | 0.00 | 59 | 1016.1 |
| 20260504034016 | 67 | 203 | 7.0 | 11.0 | 0.00 | 0.00 | 0.00 | 59 | 1016.0 |
| 20260504033016 | 67 | 203 | 8.0 | 12.0 | 0.00 | 0.00 | 0.00 | 58 | 1015.9 |
| 20260504032016 | 68 | 203 | 7.0 | 11.0 | 0.00 | 0.00 | 0.00 | 58 | 1015.9 |
| 20260504031016 | 68 | 203 | 7.0 | 12.0 | 0.00 | 0.00 | 0.00 | 58 | 1015.9 |
| 20260504030016 | 68 | 203 | 7.0 | 11.0 | 0.00 | 0.00 | 0.00 | 58 | 1015.6 |
| 20260504025016 | 68 | 203 | 6.0 | 9.0 | 0.00 | 0.00 | 0.00 | 58 | 1015.6 |
| 20260504024016 | 68 | 203 | 7.0 | 11.0 | 0.00 | 0.00 | 0.00 | 57 | 1015.6 |
| 20260504023016 | 68 | 203 | 7.0 | 9.0 | 0.00 | 0.00 | 0.00 | 56 | 1015.5 |
| 20260504022016 | 69 | 203 | 7.0 | 10.0 | 0.00 | 0.00 | 0.00 | 55 | 1015.5 |
| 20260504021016 | 69 | 203 | 7.0 | 10.0 | 0.00 | 0.00 | 0.00 | 54 | 1015.5 |
| 20260504020036 | 70 | 203 | 7.0 | 12.0 | 0.00 | 0.00 | 0.00 | 53 | 1015.4 |
| 20260504015016 | 70 | 203 | 7.0 | 10.0 | 0.00 | 0.00 | 0.00 | 51 | 1015.5 |
| 20260504014016 | 71 | 203 | 6.0 | 11.0 | 0.00 | 0.00 | 0.00 | 50 | 1015.5 |
| 20260504013036 | 71 | 203 | 7.0 | 12.0 | 0.00 | 0.00 | 0.00 | 49 | 1015.2 |
| 20260504012016 | 72 | 203 | 8.0 | 13.0 | 0.00 | 0.00 | 0.00 | 48 | 1015.0 |
| 20260504011016 | 72 | 203 | 9.0 | 13.0 | 0.00 | 0.00 | 0.00 | 46 | 1015.0 |
| 20260504010016 | 73 | 203 | 9.0 | 13.0 | 0.00 | 0.00 | 0.00 | 45 | 1015.0 |
| 20260504005036 | 74 | 203 | 7.0 | 11.0 | 0.00 | 0.00 | 0.00 | 45 | 1015.0 |
| 20260504004056 | 74 | 203 | 9.0 | 14.0 | 0.00 | 0.00 | 0.00 | 44 | 1015.0 |
| 20260504003016 | 75 | 203 | 8.0 | 13.0 | 0.00 | 0.00 | 0.00 | 43 | 1015.1 |
| 20260504002016 | 75 | 203 | 10.0 | 17.0 | 0.00 | 0.00 | 0.00 | 42 | 1015.0 |
| 20260504001016 | 76 | 203 | 9.0 | 14.0 | 0.00 | 0.00 | 0.00 | 42 | 1015.2 |
| 20260504000016 | 77 | 203 | 7.0 | 14.0 | 0.00 | 0.00 | 0.00 | 41 | 1015.3 |
| 20260503235036 | 77 | 203 | 9.0 | 15.0 | 0.00 | 0.00 | 0.00 | 40 | 1015.3 |
| 20260503234016 | 77 | 203 | 9.0 | 20.0 | 0.00 | 0.00 | 0.00 | 40 | 1015.4 |
| 20260503233016 | 78 | 203 | 9.0 | 15.0 | 0.00 | 0.00 | 0.00 | 38 | 1015.4 |
| 20260503232036 | 78 | 203 | 9.0 | 14.0 | 0.00 | 0.00 | 0.00 | 39 | 1015.5 |
| 20260503231016 | 78 | 203 | 7.0 | 14.0 | 0.00 | 0.00 | 0.00 | 40 | 1015.7 |
| 20260503230016 | 78 | 180 | 10.0 | 15.0 | 0.00 | 0.00 | 0.00 | 40 | 1015.7 |
| 20260503225036 | 79 | 203 | 8.0 | 16.0 | 0.00 | 0.00 | 0.00 | 38 | 1015.9 |
| 20260503224016 | 79 | 203 | 8.0 | 15.0 | 0.00 | 0.00 | 0.00 | 38 | 1015.8 |
| 20260503223016 | 79 | 203 | 10.0 | 18.0 | 0.00 | 0.00 | 0.00 | 36 | 1015.9 |
| 20260503222036 | 79 | 203 | 9.0 | 17.0 | 0.00 | 0.00 | 0.00 | 37 | 1016.0 |
| 20260503221016 | 79 | 203 | 8.0 | 14.0 | 0.00 | 0.00 | 0.00 | 39 | 1016.0 |
| 20260503220016 | 79 | 225 | 6.0 | 15.0 | 0.00 | 0.00 | 0.00 | 37 | 1016.2 |
| 20260503215036 | 80 | 225 | 6.0 | 14.0 | 0.00 | 0.00 | 0.00 | 36 | 1016.5 |
| 20260503214016 | 80 | 203 | 11.0 | 17.0 | 0.00 | 0.00 | 0.00 | 37 | 1016.5 |
| 20260503213016 | 80 | 203 | 9.0 | 14.0 | 0.00 | 0.00 | 0.00 | 37 | 1016.8 |
| 20260503212016 | 80 | 203 | 8.0 | 15.0 | 0.00 | 0.00 | 0.00 | 37 | 1016.8 |
| 20260503211016 | 81 | 203 | 9.0 | 16.0 | 0.00 | 0.00 | 0.00 | 36 | 1017.1 |
| 20260503210016 | 81 | 203 | 9.0 | 15.0 | 0.00 | 0.00 | 0.00 | 37 | 1017.3 |
| 20260503205016 | 82 | 203 | 3.0 | 9.0 | 0.00 | 0.00 | 0.00 | 37 | 1017.5 |
| 20260503204016 | 81 | 203 | 2.0 | 10.0 | 0.00 | 0.00 | 0.00 | 36 | 1017.6 |
| 20260503203016 | 81 | 203 | 10.0 | 16.0 | 0.00 | 0.00 | 0.00 | 36 | 1017.9 |
| 20260503202036 | 81 | 225 | 5.0 | 13.0 | 0.00 | 0.00 | 0.00 | 38 | 1018.2 |
| 20260503201016 | 81 | 270 | 2.0 | 9.0 | 0.00 | 0.00 | 0.00 | 37 | 1018.4 |
| 20260503200016 | 81 | 225 | 1.0 | 5.0 | 0.00 | 0.00 | 0.00 | 35 | 1018.3 |
| 20260503195035 | 82 | 203 | 7.0 | 18.0 | 0.00 | 0.00 | 0.00 | 37 | 1018.6 |
| 20260503194016 | 81 | 270 | 1.0 | 4.0 | 0.00 | 0.00 | 0.00 | 35 | 1018.6 |
| 20260503193016 | 81 | 225 | 3.0 | 12.0 | 0.00 | 0.00 | 0.00 | 36 | 1018.9 |
| 20260503192015 | 81 | 203 | 9.0 | 17.0 | 0.00 | 0.00 | 0.00 | 36 | 1019.0 |
| 20260503191016 | 81 | 270 | 2.0 | 7.0 | 0.00 | 0.00 | 0.00 | 35 | 1019.3 |
| 20260503190016 | 81 | 203 | 6.0 | 14.0 | 0.00 | 0.00 | 0.00 | 37 | 1019.5 |
| 20260503185016 | 81 | 203 | 4.0 | 14.0 | 0.00 | 0.00 | 0.00 | 37 | 1019.5 |
| 20260503184016 | 81 | 203 | 3.0 | 8.0 | 0.00 | 0.00 | 0.00 | 41 | 1019.7 |
| 20260503183016 | 81 | 225 | 3.0 | 10.0 | 0.00 | 0.00 | 0.00 | 39 | 1019.9 |
| 20260503182036 | 81 | 225 | 3.0 | 10.0 | 0.00 | 0.00 | 0.00 | 41 | 1020.0 |
| 20260503181016 | 80 | 225 | 2.0 | 6.0 | 0.00 | 0.00 | 0.00 | 40 | 1020.2 |
| 20260503180016 | 80 | 270 | 2.0 | 8.0 | 0.00 | 0.00 | 0.00 | 41 | 1020.4 |
| 20260503174016 | 79 | 248 | 3.0 | 12.0 | 0.00 | 0.00 | 0.00 | 44 | 1020.7 |